Pittsfield, MA

11:01 PM EST on November 17, 2019 (GMT -0500)
Pittsfield Municipal

Weather History for KPSF - July, 2019

Change the Weather History Date:

Friday, July 19, 2019

  Actual Average Record
Temperature  
Mean Temperature 78 °F 68 °F  
Max Temperature 90 °F 79 °F 93 °F (1930)
Min Temperature 66 °F 57 °F 46 °F (1956)
Degree Days  
Heating Degree Days 0 1  
Month to date heating degree days 0 19  
Since 1 June heating degree days 67 120  
Since 1 July heating degree days 0 19  
Cooling Degree Days 13 3  
Month to date cooling degree days 132 65  
Year to date cooling degree days 189 134  
Since 1 June cooling degree days 183 121  
Growing Degree Days 28 (Base 50)    
Moisture  
Dew Point 67 °F    
Average Humidity 75    
Maximum Humidity 93    
Minimum Humidity 56    
Precipitation  
Precipitation 0.00 in 0.14 in 2.56 in (1966)
Month to date precipitation 1.36 2.37  
Year to date precipitation 23.95 23.81  
Sea Level Pressure  
Sea Level Pressure 29.83 in    
Wind  
Wind Speed 5 mph (WSW)    
Max Wind Speed 18 mph    
Max Gust Speed 22 mph    
Visibility 10 miles    
Events      
T = Trace of Precipitation, MM = Missing Value Source: NWS Daily Summary

Daily Weather History Graph

Daily Weather History Graph

Search for Another Location

Airport or City:

Astronomy

Jul. 19, 2019 Rise Set
Actual Time 5:32 AM EDT 8:25 PM EDT
Civil Twilight 4:59 AM EDT 8:58 PM EDT
Nautical Twilight 4:17 AM EDT 9:40 PM EDT
Astronomical Twilight 3:28 AM EDT 10:29 PM EDT
Moon 10:19 PM EDT (7/19) 7:58 AM EDT (7/19)
Length of Visible Light 15h 59m
Length of Day
14h 52m
Waning Gibbous, 93% of the Moon is Illuminated
Jul 19
Waning Gibbous
Jul 24
Last Quarter
Jul 31
New
Aug 7
First Quarter
Aug 15
Full

Hourly Weather History & Observations

Time (EDT) Temp. Heat Index Dew Point Humidity Pressure Visibility Wind Dir Wind Speed Gust Speed Precip Events Conditions
12:54 AM 66.9 °F - 63.0 °F 87% 29.87 in 10.0 mi Calm Calm - N/A   Overcast
1:54 AM 66.9 °F - 63.0 °F 87% 29.86 in 10.0 mi Calm Calm - N/A   Overcast
2:54 AM 66.0 °F - 63.0 °F 90% 29.86 in 10.0 mi Calm Calm - N/A   Overcast
3:54 AM 66.9 °F - 63.0 °F 87% 29.85 in 10.0 mi Calm Calm - N/A   Overcast
4:12 AM 66.9 °F - 64.0 °F 90% 29.92 in 10.0 mi Calm Calm - N/A   Overcast
4:54 AM 66.0 °F - 63.0 °F 90% 29.84 in 10.0 mi Calm Calm - N/A   Overcast
5:02 AM 66.0 °F - 63.0 °F 90% 29.92 in 10.0 mi Calm Calm - N/A   Overcast
5:12 AM 66.9 °F - 64.0 °F 90% 29.91 in 10.0 mi Calm Calm - N/A   Overcast
5:46 AM 66.9 °F - 63.0 °F 87% 29.92 in 10.0 mi Calm Calm - N/A   Overcast
5:54 AM 66.9 °F - 63.0 °F 87% 29.85 in 10.0 mi Calm Calm - N/A   Overcast
6:52 AM 66.2 °F - 64.4 °F 94% 29.91 in 7.0 mi Calm Calm - N/A   Overcast
6:54 AM 66.9 °F - 64.0 °F 90% 29.84 in 8.0 mi Calm Calm - N/A   Overcast
7:54 AM 68.0 °F - 64.9 °F 90% 29.85 in 5.0 mi Calm Calm - N/A   Overcast
8:40 AM 69.1 °F - 64.9 °F 87% 29.91 in 10.0 mi ESE 4.6 mph - N/A   Overcast
8:54 AM 70.0 °F - 66.0 °F 87% 29.84 in 10.0 mi Calm Calm - N/A   Overcast
9:54 AM 73.9 °F - 66.9 °F 79% 29.83 in 10.0 mi Calm Calm - N/A   Mostly Cloudy
10:14 AM 75.9 °F - 66.9 °F 74% 29.91 in 10.0 mi Calm Calm - N/A   Partly Cloudy
10:54 AM 78.1 °F - 68.0 °F 71% 29.82 in 10.0 mi WSW 6.9 mph - N/A   Clear
11:54 AM 82.9 °F 87.5 °F 71.1 °F 67% 29.81 in 10.0 mi SSW 9.2 mph - N/A   Clear
12:54 PM 84.9 °F 90.7 °F 72.0 °F 65% 29.79 in 10.0 mi Variable 6.9 mph - N/A   Scattered Clouds
1:54 PM 86.0 °F 91.5 °F 71.1 °F 61% 29.77 in 10.0 mi West 9.2 mph - N/A   Mostly Cloudy
2:54 PM 87.1 °F 93.6 °F 72.0 °F 61% 29.77 in 10.0 mi West 10.4 mph - N/A   Mostly Cloudy
3:54 PM 89.1 °F 96.0 °F 72.0 °F 57% 29.77 in 10.0 mi West 12.7 mph - N/A   Mostly Cloudy
4:54 PM 88.0 °F 94.7 °F 72.0 °F 59% 29.75 in 10.0 mi WSW 9.2 mph - N/A   Mostly Cloudy
5:54 PM 88.0 °F 94.7 °F 72.0 °F 59% 29.75 in 10.0 mi West 11.5 mph - N/A   Clear
6:54 PM 84.9 °F 90.1 °F 71.1 °F 63% 29.75 in 10.0 mi SW 6.9 mph - N/A   Clear
7:54 PM 82.0 °F 87.4 °F 73.0 °F 74% 29.77 in 10.0 mi West 3.5 mph - N/A   Partly Cloudy
8:54 PM 82.0 °F 86.7 °F 72.0 °F 71% 29.76 in 10.0 mi WSW 4.6 mph - N/A   Mostly Cloudy
9:54 PM 82.0 °F 86.7 °F 72.0 °F 71% 29.77 in 10.0 mi WSW 6.9 mph - N/A   Mostly Cloudy
10:54 PM 81.0 °F 84.4 °F 70.0 °F 69% 29.77 in 10.0 mi WSW 9.2 mph - N/A   Partly Cloudy
11:54 PM 80.1 °F 83.2 °F 70.0 °F 71% 29.77 in 10.0 mi WSW 6.9 mph - N/A   Partly Cloudy